Dewpoint
39 39 39 39 40 40 39 41 36 32 30 33 34 35 37 36 38 39 40 42 44 44 42 43 41 41 42 42 47 47 47 47 48 48 48 49 50 50
36 37 37 39 39 39 39 37 35 34 33 33 34 35 34 33 35 37 37 41 43 41 41 39 39 40 41 44 46 46 45 45 46 46 46 47 48 49
35 35 36 37 37 39 37 36 35 34 31 33 32 32 32 32 34 34 35 37 37 38 39 37 37 38 41 41 41 44 43 43 43 44 44 45 46 47
33 34 34 36 36 36 35 35 33 33 32 28 30 29 29 30 32 31 34 31 33 34 36 36 37 39 37 37 38 42 42 41 41 42 43 43 43 45
33 34 35 37 34 33 33 32 33 31 30 28 27 28 28 29 29 30 30 31 33 33 33 33 37 37 35 36 37 39 41 40 40 41 41 41 41 42
34 35 36 34 34 32 31 31 30 29 30 29 28 28 29 29 29 30 30 32 30 30 31 33 35 35 35 36 36 39 41 40 40 40 40 40 39 40
33 32 33 34 35 33 30 30 31 30 31 30 29 30 29 28 29 31 32 32 31 30 30 31 31 32 33 34 36 39 40 39 39 39 39 39 38 38
30 30 31 32 32 32 33 33 34 31 29 29 29 29 29 30 31 31 31 29 27 31 31 30 32 33 33 35 37 39 38 38 38 38 38 37 37 36
29 30 29 28 31 30 32 32 31 32 31 29 28 30 29 30 31 32 31 30 30 31 32 31 32 32 33 35 36 38 37 37 37 37 37 36 36 35
30 29 29 29 30 31 30 29 29 29 29 30 30 31 32 32 32 33 33 33 32 33 34 30 33 32 32 33 36 36 36 36 36 36 36 35 35 35
28 28 29 29 31 32 30 29 29 30 31 33 33 34 33 33 34 34 32 32 30 32 32 32 32 32 32 31 33 35 35 35 35 35 35 35 35 34
27 28 30 30 31 31 30 30 30 30 31 32 32 32 33 33 33 33 34 31 31 30 32 32 32 32 30 33 33 32 33 34 34 35 35 35 35 32
27 27 28 30 31 32 32 31 31 32 32 31 32 32 33 32 32 32 32 33 31 31 34 34 32 32 31 31 32 32 32 32 32 32 34 35 35 34
27 28 28 31 32 32 32 32 32 31 31 32 31 31 30 31 32 32 32 33 34 33 35 35 33 32 31 31 30 32 32 32 32 32 32 33 34 34
29 30 31 31 31 31 32 31 30 31 31 32 31 31 31 32 32 32 32 33 34 33 34 34 34 32 31 30 30 30 29 31 32 31 30 29 29 30
29 29 29 29 29 29 29 30 30 31 32 31 32 32 32 32 31 32 32 32 32 32 33 32 32 31 30 30 31 29 29 28 30 29 28 28 29 29
30 29 29 28 28 28 28 30 31 32 31 32 32 31 31 31 32 32 33 32 31 31 32 31 31 32 32 31 27 29 29 29 29 28 28 26 27 28
29 28 28 28 28 28 29 29 29 29 31 32 31 31 30 31 31 31 32 32 31 31 32 30 29 28 30 31 33 30 29 28 29 28 28 25 25 28
28 28 28 28 29 29 29 29 29 29 30 30 30 30 31 32 32 31 30 31 31 32 32 32 31 29 26 24 30 33 28 26 26 25 26 25 24 26
29 28 28 29 30 29 29 29 30 30 29 30 30 31 30 31 30 30 31 31 31 31 29 31 30 28 26 25 24 28 32 27 25 25 25 27 28 30
29 29 29 30 30 30 29 29 30 30 30 30 30 31 32 31 30 31 32 31 29 28 26 28 29 30 30 27 22 23 27 32 31 29 28 25 24 24
29 29 30 30 30 30 30 30 29 29 30 30 30 31 32 32 31 31 32 28 28 28 29 29 29 27 25 23 22 23 24 27 29 29 29 29 26 19
29 30 30 30 30 30 30 30 29 29 29 29 30 30 32 31 32 32 31 30 27 28 27 28 28 26 25 23 22 22 23 24 24 23 26 28 28 29
Lifted_Index
16 16 16 15 15 14 14 15 15 14 14 15 16 16 16 16 16 15 14 13 13 13 14 15 16 17 17 16 15 13 13 13 12 12 12 12 11 11
17 16 16 15 15 14 14 15 15 15 15 16 17 17 16 16 16 16 15 14 14 14 14 15 16 17 17 16 15 14 14 13 13 12 12 12 12 12
17 17 16 15 15 15 15 16 16 17 16 16 17 16 16 16 16 16 15 15 15 15 15 15 15 16 16 15 15 15 15 15 14 13 13 12 12 12
17 17 16 15 15 16 16 16 17 17 16 16 16 15 15 15 15 15 15 15 15 15 15 15 15 15 15 15 15 15 16 15 15 14 13 13 12 12
17 17 16 16 16 17 17 17 17 16 16 15 14 15 15 15 14 14 14 14 15 15 15 14 14 14 14 14 14 15 15 15 14 13 13 13 13 13
17 17 16 17 17 17 17 17 16 16 15 14 14 13 14 14 13 13 13 13 13 13 13 13 13 13 13 14 14 14 14 14 13 13 13 13 13 13
17 17 17 17 17 17 17 17 16 15 14 14 13 12 12 12 13 13 12 12 12 12 12 12 12 12 12 13 13 14 14 13 13 12 12 13 13 13
17 16 16 16 17 17 17 17 16 15 14 14 12 12 12 13 14 14 13 12 12 13 12 11 11 11 11 12 12 12 12 12 12 12 12 13 13 13
16 16 15 16 16 17 17 17 16 16 15 14 13 12 13 14 14 14 14 13 13 13 13 12 11 11 11 11 10 9 9 9 9 10 12 13 13 14
16 15 15 15 16 16 16 15 15 15 14 14 13 13 13 14 14 14 14 13 13 13 12 12 12 11 11 11 10 9 8 7 7 8 10 11 13 13
15 15 15 15 16 16 15 14 14 14 13 13 13 13 13 13 13 13 13 13 12 12 12 12 12 12 11 11 10 9 8 8 7 8 9 10 11 12
15 15 15 15 15 16 15 14 13 13 13 13 12 12 12 12 12 12 12 12 11 11 11 12 11 11 11 11 10 10 9 8 8 8 9 9 10 11
15 14 14 15 15 15 15 15 14 13 13 13 12 12 12 12 12 12 11 11 11 11 11 11 11 11 11 10 10 10 9 9 8 8 9 9 10 11
15 14 15 15 15 15 15 14 13 13 12 12 12 12 12 11 11 11 11 11 11 11 11 11 11 11 11 10 9 9 9 9 9 9 9 10 10 11
14 15 15 15 15 15 14 13 13 12 12 12 11 11 11 11 11 11 11 11 10 10 10 10 11 11 10 9 9 9 9 9 9 9 9 9 10 11
14 14 14 14 14 14 13 12 12 12 12 11 11 11 11 11 11 11 11 10 10 10 10 10 11 11 10 9 8 8 8 9 9 9 9 9 10 10
14 14 13 13 13 13 12 12 12 12 12 11 11 11 11 10 11 11 10 10 9 9 9 10 10 11 10 10 9 9 9 9 9 9 9 9 9 9
13 13 12 12 12 12 12 11 11 11 11 11 11 11 11 10 10 10 10 9 9 9 9 10 10 10 10 10 10 10 9 9 9 9 9 8 8 9
13 12 12 12 12 12 12 11 11 11 11 11 11 11 11 10 10 9 9 9 9 9 9 9 9 9 9 9 10 10 9 9 9 9 8 8 8 9
13 12 12 13 13 12 12 11 11 11 11 11 11 10 10 10 9 9 9 9 9 8 8 9 9 9 9 8 9 10 10 10 9 9 8 8 8 9
13 13 13 14 13 13 12 11 11 11 11 10 10 10 10 10 9 9 9 9 9 8 8 8 9 10 9 9 9 10 10 10 10 9 9 9 8 8
13 13 14 14 14 13 12 11 11 10 10 10 10 10 10 10 10 10 9 9 9 8 8 9 10 10 10 9 9 9 10 10 10 10 10 10 9 9
13 13 14 15 15 13 12 11 11 10 10 10 10 10 10 10 10 10 10 9 9 9 9 10 10 10 9 9 9 9 9 9 9 10 10 11 11 11